Troy, MI

5:58 PM EDT on March 27, 2017 (GMT -0400)
Troy

Weather History for KVLL - February, 2014

Change the Weather History Date:

Sunday, February 9, 2014

  Actual Average (KDET) Record (KDET)
Temperature  
Mean Temperature 18 °F -  
Max Temperature 23 °F 29 °F 56 °F (1966)
Min Temperature 12 °F 16 °F -4 °F (1979)
Degree Days  
Heating Degree Days 48    
Moisture  
Dew Point 11 °F    
Average Humidity 78    
Maximum Humidity 89    
Minimum Humidity 60    
Precipitation  
Precipitation 0.00 in - - ()
Sea Level Pressure  
Sea Level Pressure 30.09 in    
Wind  
Wind Speed 3 mph (West)    
Max Wind Speed 13 mph    
Max Gust Speed 16 mph    
Visibility 7 miles    
Events Snow    
Averages and records for this station are not official NWS values.
T = Trace of Precipitation, MM = Missing Value Source: NWS Daily Summary

Daily Weather History Graph

Daily Weather History Graph

Search for Another Location

Airport or City:

Trip Planner

Search our weather history database for the weather conditions in past years. The results will help you decide how hot, cold, wet, or windy it might be!

Date:

Astronomy

Feb. 09, 2014 Rise Set
Actual Time 7:37 AM EST 5:57 PM EST
Civil Twilight 7:08 AM EST 6:26 PM EST
Nautical Twilight 6:34 AM EST 6:59 PM EST
Astronomical Twilight 6:02 AM EST 7:32 PM EST
Moon 1:34 PM EST (2/9) 3:43 AM EST (2/9)
Length of Visible Light 11h 18m
Length of Day
10h 19m
Waxing Gibbous, 77% of the Moon is Illuminated
Feb 9
Waxing Gibbous
Feb 14
Full
Feb 22
Last Quarter
Mar 1
New
Mar 8
First Quarter

Hourly Weather History & Observations

Time (EST) Temp. Windchill Dew Point Humidity Pressure Visibility Wind Dir Wind Speed Gust Speed Precip Events Conditions
12:15 AM 14.5 °F 8.8 °F 10.6 °F 84% 30.18 in 7.0 mi SW 3.5 mph - N/A   Overcast
12:34 AM 14.4 °F - 10.6 °F 85% 30.17 in 7.0 mi Calm Calm - N/A Snow Light Snow
12:55 AM 14.4 °F 8.6 °F 10.8 °F 86% 30.17 in 10.0 mi SW 3.5 mph - N/A Snow Light Snow
1:15 AM 14.4 °F - 10.8 °F 86% 30.15 in 10.0 mi Calm Calm - N/A   Overcast
1:34 AM 14.4 °F - 10.9 °F 86% 30.15 in 10.0 mi Calm Calm - N/A   Overcast
1:55 AM 14.0 °F - 10.8 °F 87% 30.15 in 10.0 mi Calm Calm - N/A   Overcast
2:15 AM 14.4 °F - 11.1 °F 87% 30.13 in 10.0 mi Calm Calm - N/A   Overcast
2:34 AM 14.5 °F - 10.8 °F 85% 30.13 in 10.0 mi Calm Calm - N/A   Overcast
2:55 AM 14.4 °F - 10.9 °F 86% 30.13 in 10.0 mi Calm Calm - N/A   Overcast
3:15 AM 14.5 °F - 11.1 °F 86% 30.13 in 10.0 mi Calm Calm - N/A   Overcast
3:34 AM 14.4 °F - 10.9 °F 86% 30.13 in 7.0 mi Calm Calm - N/A Snow Light Snow
3:55 AM 14.4 °F - 10.9 °F 86% 30.12 in 3.0 mi Calm Calm - N/A Snow Light Snow
4:15 AM 14.4 °F 8.6 °F 10.8 °F 86% 30.12 in 3.0 mi SSW 3.5 mph - N/A Snow Light Snow
4:34 AM 14.4 °F - 10.8 °F 86% 30.10 in 4.0 mi Calm Calm - N/A Snow Light Snow
4:55 AM 14.4 °F - 10.9 °F 86% 30.11 in 4.0 mi Calm Calm - N/A Snow Light Snow
5:15 AM 14.4 °F - 11.1 °F 87% 30.10 in 5.0 mi Calm Calm - N/A Snow Light Snow
5:34 AM 14.9 °F - 11.8 °F 88% 30.11 in 1.5 mi Calm Calm - N/A Snow Light Snow
5:55 AM 14.2 °F - 11.3 °F 88% 30.11 in 1.5 mi Calm Calm - N/A Snow Light Snow
6:14 AM 14.0 °F - 11.3 °F 89% 30.10 in 1.2 mi Calm Calm - N/A Snow Light Snow
6:35 AM 14.0 °F - 11.3 °F 89% 30.10 in 2.0 mi Calm Calm - N/A Snow Light Snow
6:54 AM 14.0 °F - 11.1 °F 88% 30.09 in 2.5 mi Calm Calm - N/A Snow Light Snow
7:14 AM 14.2 °F - 10.9 °F 87% 30.08 in 1.5 mi Calm Calm - N/A Snow Light Snow
7:35 AM 14.0 °F - 10.9 °F 88% 30.08 in 2.5 mi Calm Calm - N/A Snow Light Snow
7:54 AM 14.4 °F - 11.7 °F 89% 30.08 in 2.0 mi Calm Calm - N/A Snow Light Snow
8:15 AM 14.7 °F - 11.7 °F 88% 30.07 in 1.8 mi Calm Calm - N/A Snow Light Snow
8:35 AM 14.4 °F - 11.3 °F 88% 30.06 in 1.0 mi Calm Calm - N/A Snow Light Snow
8:54 AM 14.7 °F - 11.8 °F 88% 30.07 in 0.8 mi Calm Calm - N/A Snow Light Snow
9:15 AM 15.4 °F - 12.0 °F 86% 30.06 in 0.8 mi Calm Calm - N/A Snow Light Snow
9:34 AM 15.3 °F - 11.3 °F 84% 30.06 in 1.0 mi Calm Calm - N/A Snow Light Snow
9:55 AM 15.8 °F - 11.8 °F 84% 30.06 in 1.5 mi Calm Calm - N/A Snow Light Snow
10:15 AM 15.8 °F - 11.7 °F 84% 30.05 in 1.5 mi Calm Calm - N/A Snow Light Snow
10:34 AM 16.5 °F - 12.0 °F 82% 30.05 in 1.2 mi Calm Calm - N/A Snow Light Snow
10:55 AM 16.5 °F 11.0 °F 11.1 °F 79% 30.05 in 1.8 mi NW 3.5 mph - N/A Snow Light Snow
11:14 AM 16.3 °F 10.8 °F 10.4 °F 77% 30.05 in 5.0 mi WNW 3.5 mph - N/A Snow Light Snow
11:35 AM 18.0 °F 12.7 °F 11.1 °F 75% 30.05 in 5.0 mi West 3.5 mph - N/A Snow Light Snow
11:54 AM 18.7 °F 8.6 °F 10.9 °F 72% 30.04 in 7.0 mi West 8.1 mph - N/A Snow Light Snow
12:15 PM 18.5 °F 8.4 °F 10.4 °F 71% 30.03 in 10.0 mi NW 8.1 mph - N/A   Scattered Clouds
12:35 PM 20.1 °F 10.3 °F 10.9 °F 68% 30.03 in 10.0 mi WNW 8.1 mph - N/A   Mostly Cloudy
12:54 PM 21.0 °F 9.9 °F 11.1 °F 66% 30.02 in 10.0 mi West 10.4 mph - N/A   Overcast
1:15 PM 21.0 °F 11.4 °F 10.8 °F 65% 30.02 in 10.0 mi WNW 8.1 mph - N/A   Overcast
1:35 PM 20.8 °F 11.2 °F 10.6 °F 65% 30.02 in 5.0 mi West 8.1 mph - N/A   Haze
1:54 PM 21.6 °F 11.3 °F 10.6 °F 63% 30.02 in 10.0 mi WNW 9.2 mph - N/A   Scattered Clouds
2:15 PM 23.0 °F 11.1 °F 10.9 °F 60% 30.02 in 10.0 mi West 12.7 mph 16.1 mph N/A   Scattered Clouds
2:34 PM 23.0 °F 15.8 °F 10.9 °F 60% 30.02 in 10.0 mi WNW 5.8 mph 9.2 mph N/A   Scattered Clouds
2:54 PM 22.8 °F 11.5 °F 10.8 °F 60% 30.02 in 10.0 mi WNW 11.5 mph 16.1 mph N/A   Scattered Clouds
3:15 PM 22.1 °F 12.0 °F 10.4 °F 61% 30.02 in 10.0 mi NW 9.2 mph - N/A   Scattered Clouds
3:35 PM 21.7 °F 13.2 °F 10.6 °F 62% 30.03 in 10.0 mi NW 6.9 mph - N/A   Scattered Clouds
3:54 PM 22.1 °F 12.8 °F 11.3 °F 63% 30.03 in 10.0 mi NW 8.1 mph - N/A   Mostly Cloudy
4:15 PM 21.7 °F 12.3 °F 11.1 °F 64% 30.04 in 10.0 mi NNW 8.1 mph - N/A   Overcast
4:35 PM 21.6 °F 12.1 °F 10.8 °F 63% 30.05 in 10.0 mi NW 8.1 mph - N/A   Overcast
4:54 PM 21.4 °F 11.9 °F 10.4 °F 63% 30.05 in 5.0 mi WNW 8.1 mph - N/A   Haze
5:14 PM 21.2 °F 10.9 °F 10.6 °F 64% 30.06 in 10.0 mi NW 9.2 mph - N/A   Overcast
5:35 PM 21.2 °F 10.9 °F 10.4 °F 63% 30.07 in 7.0 mi WNW 9.2 mph - N/A   Mostly Cloudy
5:54 PM 20.3 °F 11.5 °F 10.4 °F 66% 30.09 in 7.0 mi WNW 6.9 mph - N/A   Scattered Clouds
6:15 PM 19.8 °F 9.9 °F 10.0 °F 66% 30.11 in 10.0 mi WNW 8.1 mph - N/A   Mostly Cloudy
6:34 PM 19.0 °F 11.1 °F 9.7 °F 67% 30.13 in 10.0 mi WNW 5.8 mph - N/A   Scattered Clouds
6:55 PM 18.3 °F 13.1 °F 9.5 °F 68% 30.13 in 10.0 mi West 3.5 mph - N/A   Clear
7:15 PM 17.2 °F 11.9 °F 9.7 °F 72% 30.13 in 10.0 mi WSW 3.5 mph - N/A   Clear
7:34 PM 16.7 °F 11.2 °F 9.5 °F 73% 30.13 in 10.0 mi WSW 3.5 mph - N/A   Clear
7:55 PM 16.2 °F - 9.5 °F 75% 30.13 in 10.0 mi Calm Calm - N/A   Clear
8:15 PM 15.4 °F - 9.5 °F 77% 30.13 in 10.0 mi Calm Calm - N/A   Clear
8:34 PM 15.3 °F - 9.5 °F 78% 30.13 in 10.0 mi Calm Calm - N/A   Clear
8:55 PM 12.7 °F 6.7 °F 8.6 °F 84% 30.14 in 10.0 mi West 3.5 mph - N/A   Clear
9:15 PM 13.8 °F 8.0 °F 9.3 °F 82% 30.14 in 10.0 mi WSW 3.5 mph - N/A   Mostly Cloudy
9:34 PM 15.1 °F 9.4 °F 10.4 °F 82% 30.15 in 10.0 mi WSW 3.5 mph - N/A   Overcast
9:55 PM 15.8 °F 10.2 °F 10.9 °F 81% 30.15 in 10.0 mi West 3.5 mph - N/A   Overcast
10:15 PM 15.8 °F 10.2 °F 11.5 °F 83% 30.15 in 7.0 mi West 3.5 mph - N/A Snow Light Snow
10:34 PM 16.7 °F 9.6 °F 13.1 °F 86% 30.16 in 4.0 mi West 4.6 mph - N/A Snow Light Snow
10:55 PM 17.4 °F 12.1 °F 13.3 °F 84% 30.15 in 10.0 mi West 3.5 mph - N/A   Overcast
11:15 PM 18.0 °F 8.7 °F 12.9 °F 81% 30.15 in 10.0 mi West 6.9 mph - N/A   Overcast
11:34 PM 18.1 °F 7.9 °F 12.6 °F 79% 30.16 in 10.0 mi West 8.1 mph - N/A   Overcast
11:55 PM 18.1 °F 7.1 °F 12.2 °F 78% 30.15 in 10.0 mi West 9.2 mph - N/A   Overcast